[[{"header":{"parameterUnit":"m.s-1","parameterCategory":1,"la1":30.2991,"la2":30.254,"lo1":-89.0895,"lo2":-89.0444,"dy":0.0017,"dx":0.0017,"nx":28,"ny":28,"refTime":"2023-10-09T21:00:00:Z","depth":0,"parameterNumber":2,"parameterNumberName":"U-component_of_WINDS"},"data":[0,0,0,0,0,0,0,0,0,0,0,0,0,0,0,0,0,0,0,0,0,0,0,0,0,0,0,0,0,0,0,0,0,0,0,0,0,0,0,0,0,0,0,0,0,0,0,0,0,0,0,0,0,0,0,0,0,0,-9.1716,-9.1715,0,-9.1618,-9.1617,-9.1616,-9.1304,-9.1297,-9.1291,-9.1284,-9.1193,-9.1197,-9.1201,0,0,0,0,0,0,0,0,0,0,0,0,0,-9.1642,-9.1645,-9.1716,-9.1715,-9.1713,-9.1618,-9.1617,-9.1615,-9.1306,-9.1297,-9.1289,-9.1281,-9.1191,-9.1196,-9.1201,0,0,0,0,0,0,0,0,0,0,0,0,0,-9.1623,-9.1646,-9.1716,-9.1547,-9.1531,-9.1618,-9.1617,-9.1615,-9.1307,-9.1297,-9.1287,-9.1277,-9.119,-9.1196,-9.1202,-9.1447,0,0,-9.122,-9.1223,0,0,0,0,0,0,0,0,-9.1624,-9.1626,-9.1573,-9.1559,-9.1541,-9.1462,-9.1557,-9.1559,-9.131,-9.1393,-9.1284,-9.1272,-9.1292,-9.1289,-9.1293,-9.1443,-9.1439,-9.1221,-9.1224,-9.1227,-9.1229,0,0,0,0,0,0,0,-9.1626,-9.1628,-9.1677,-9.1573,-9.1553,-9.1479,-9.1464,-9.1556,-9.1402,-9.1385,-9.1362,-9.1354,-9.1281,-9.1288,-9.1289,-9.1438,-9.1221,-9.1226,-9.123,-9.1232,-9.1784,-9.1794,0,0,0,0,0,0,-9.165,-9.1631,-9.168,-9.1674,-9.1557,-9.1489,-9.1472,-9.1498,-9.14,-9.1375,-9.1363,-9.134,-9.1283,-9.1282,-9.1285,-9.1564,-9.1227,-9.1233,-9.1236,-9.1773,-9.1786,-9.1798,0,0,0,0,0,0,-9.165,-9.1658,-9.1684,-9.1646,-9.1644,-9.1501,-9.1533,-9.1502,-9.1509,-9.1383,-9.1355,-9.1398,-9.1275,-9.1276,-9.1408,-9.1557,-9.1235,-9.1241,-9.176,-9.1777,-9.1792,-9.2128,0,0,0,0,0,0,-9.1649,-9.1659,-9.175,-9.1651,-9.1647,-9.1809,-9.1541,-9.1508,-9.1519,-9.1488,-9.1409,-9.1386,-9.1267,-9.1401,-9.1415,-9.156,-9.1246,-9.1746,-9.1767,-9.1787,-9.2103,-9.2154,-9.2198,0,0,0,0,0,-9.1647,-9.185,-9.1756,-9.1763,-9.1757,-9.1818,-9.1816,-9.1672,-9.1532,-9.1623,-9.1542,-9.1389,-9.1539,-9.1417,-9.143,-9.1579,-9.1736,-9.1761,-9.1785,-9.2082,-9.2144,-9.2197,0,0,0,0,0,0,-9.1974,-9.1834,-9.1728,-9.1904,-9.1875,-9.1765,-9.1874,-9.1742,-9.1754,-9.1725,-9.1548,-9.1533,-9.1691,-9.1648,-9.1515,-9.1811,-9.1612,-9.1641,-9.1833,-9.1891,-9.1938,-9.1945,-9.1251,0,0,0,0,0,-9.2066,-9.2124,-9.2,-9.2168,-9.2158,-9.202,-9.2041,-9.1932,-9.1896,-9.1883,-9.1811,-9.1785,-9.1825,-9.1856,-9.1886,-9.2096,-9.2075,-9.2205,-9.2252,-9.2292,-9.2319,-9.2426,-9.2482,-9.188,-9.1879,-9.1879,0,0,-9.2258,-9.2188,-9.2237,-9.2232,-9.2196,-9.2263,-9.2012,-9.2093,-9.2141,-9.1896,-9.2015,-9.1963,-9.1921,-9.2093,-9.2165,-9.2062,-9.248,-9.2323,-9.2356,-9.2361,-9.2457,-9.2514,-9.2565,-9.1896,-9.1893,-9.1891,0,0,-9.264,-9.2594,-9.2727,-9.2696,-9.2644,-9.255,-9.2583,-9.2493,-9.2448,-9.2564,-9.2381,-9.2438,-9.2512,-9.2489,-9.2487,-9.2861,-9.2721,-9.2877,-9.3124,-9.3231,-9.3278,-9.3319,-9.3453,-9.3503,-9.2904,-9.2905,-9.2905,0,-9.2886,-9.2975,-9.2814,-9.2906,-9.2909,-9.2687,-9.2822,-9.2801,-9.2764,-9.2773,-9.2657,-9.2744,-9.2701,-9.2864,-9.2955,-9.2962,-9.2994,-9.2884,-9.3284,-9.3324,-9.336,-9.3485,-9.3535,-9.2924,-9.2922,-9.292,-9.2918,0,-9.3279,-9.3345,-9.346,-9.3425,-9.3442,-9.3556,-9.3414,-9.3451,-9.3341,-9.3261,-9.3383,-9.3323,-9.3337,-9.3367,-9.3263,-9.3517,-9.3454,-9.3315,-9.311,-9.3439,-9.3553,-9.36,-9.2951,-9.2944,-9.2939,-9.2934,0,0,-9.3865,-9.3738,-9.3783,-9.3764,-9.369,-9.3739,-9.3844,-9.3854,-9.3889,-9.3871,-9.3955,-9.4023,-9.3892,-9.3891,-9.3782,-9.3876,-9.4176,-9.3723,-9.372,-9.3809,-9.4452,-9.4557,-9.4615,-9.4082,-9.4091,-9.4097,-9.4455,0,-9.4227,-9.4394,-9.4252,-9.4447,-9.4506,-9.4296,-9.4387,-9.4353,-9.4282,-9.4323,-9.4244,-9.4294,-9.4119,-9.4116,-9.42,-9.4122,-9.4302,-9.4094,-9.4161,-9.4165,-9.4176,-9.4675,-9.4786,-9.5127,-9.4499,-9.4506,-9.4512,0,-9.4671,-9.4669,-9.487,-9.4781,-9.4801,-9.4885,-9.4882,-9.4924,-9.4882,-9.4823,-9.4822,-9.4687,-9.4786,-9.4587,-9.4721,-9.4583,-9.4602,-9.4568,-9.4578,-9.4578,-9.4358,-9.4688,-9.5232,-9.5283,-9.4581,-9.4575,-9.457,0,-9.5078,-9.5126,-9.5251,-9.5242,-9.5142,-9.5206,-9.5168,-9.5115,-9.513,-9.513,-9.5138,-9.5152,-9.5159,-9.5174,-9.5047,-9.4913,-9.5198,-9.4988,-9.5154,-9.5157,-9.5222,-9.522,-9.5776,-9.5238,-9.5237,-9.5236,-9.5235,0,-9.5496,-9.5627,-9.5431,-9.5509,-9.565,-9.5486,-9.5631,-9.5572,-9.5527,-9.5591,-9.5412,-9.5477,-9.5305,-9.5353,-9.5255,-9.5381,-9.5387,-9.5343,-9.5315,-9.5359,-9.5364,-9.5368,-9.5341,-9.5249,-9.5246,-9.5243,-9.5241,0,-9.5974,-9.5848,-9.597,-9.5865,-9.5841,-9.595,-9.5861,-9.5929,-9.5845,-9.5929,-9.5939,-9.5809,-9.5855,-9.573,-9.5759,-9.5693,-9.5875,-9.581,-9.5889,-9.5869,-9.6041,-9.6026,-9.6618,-9.6688,-9.6107,-9.6112,-9.6117,0,-9.6248,-9.6343,-9.6247,-9.6275,-9.6245,-9.6294,-9.6307,-9.615,-9.6172,-9.6131,-9.6206,-9.6237,-9.6253,-9.6339,-9.6249,-9.627,-9.6204,-9.641,-9.6206,-9.6246,-9.6206,-9.6201,-9.621,-9.6452,-9.6459,-9.6465,-9.647,0,-9.6749,-9.6682,-9.6706,-9.6709,-9.6729,-9.6725,-9.6709,-9.6744,-9.6576,-9.6611,-9.6654,-9.6667,-9.6694,-9.6728,-9.673,-9.6693,-9.6556,-9.6535,-9.6574,-9.6619,-9.666,-9.6639,-9.6003,-9.6522,-9.6516,-9.6513,-9.651,-9.6508,-9.7132,-9.7206,-9.7149,-9.7182,-9.7153,-9.7142,-9.72,-9.7122,-9.7154,-9.7161,-9.7068,-9.7132,-9.7088,-9.7075,-9.7053,-9.7103,-9.7009,-9.7066,-9.708,-9.7097,-9.7125,-9.6653,-9.7103,-9.7101,-9.71,-9.7098,-9.7097,0,-9.7623,-9.7575,-9.7607,-9.7588,-9.7615,-9.7478,-9.7453,-9.7486,-9.7543,-9.7512,-9.753,-9.7581,-9.7613,-9.7526,-9.7545,-9.7602,-9.7539,-9.7612,-9.7606,-9.76,-9.7208,-9.7172,-9.7663,-9.7662,-9.7662,-9.7662,-9.7662,-9.7662,-9.7881,-9.7999,-9.7925,-9.8027,-9.7978,-9.8036,-9.8033,-9.8023,-9.7997,-9.806,-9.8084,-9.8025,-9.7972,-9.7986,-9.8011,-9.7984,-9.8,-9.8095,-9.8048,-9.7683,-9.7628,-9.7575,-9.754,-9.81,-9.8101,-9.8434,-9.8437,-9.844]},{"header":{"parameterUnit":"m.s-1","parameterCategory":1,"la1":30.2991,"la2":30.254,"lo1":-89.0895,"lo2":-89.0444,"dy":0.0017,"dx":0.0017,"nx":28,"ny":28,"refTime":"2023-10-09T21:00:00:Z","depth":0,"parameterNumber":3,"parameterNumberName":"V-component_of_WINDS"},"data":[0,0,0,0,0,0,0,0,0,0,0,0,0,0,0,0,0,0,0,0,0,0,0,0,0,0,0,0,0,0,0,0,0,0,0,0,0,0,0,0,0,0,0,0,0,0,0,0,0,0,0,0,0,0,0,0,0,0,-5.2743,-5.2743,0,-5.2769,-5.277,-5.277,-5.2679,-5.2676,-5.2674,-5.2671,-5.2701,-5.2705,-5.2708,0,0,0,0,0,0,0,0,0,0,0,0,0,-5.2613,-5.2615,-5.2743,-5.2743,-5.2743,-5.2769,-5.277,-5.277,-5.268,-5.2676,-5.2673,-5.267,-5.27,-5.2704,-5.2708,0,0,0,0,0,0,0,0,0,0,0,0,0,-5.2657,-5.2616,-5.2743,-5.2701,-5.2698,-5.2769,-5.277,-5.277,-5.268,-5.2676,-5.2672,-5.2668,-5.2699,-5.2704,-5.2709,-5.2822,0,0,-5.2724,-5.2726,0,0,0,0,0,0,0,0,-5.2655,-5.2662,-5.2707,-5.2704,-5.27,-5.2717,-5.2735,-5.2788,-5.2681,-5.2687,-5.2671,-5.2666,-5.271,-5.2714,-5.2728,-5.2824,-5.2825,-5.2725,-5.2728,-5.273,-5.2731,0,0,0,0,0,0,0,-5.2652,-5.2661,-5.2753,-5.2708,-5.2704,-5.2681,-5.2683,-5.2745,-5.2721,-5.2686,-5.268,-5.2684,-5.2707,-5.2723,-5.2728,-5.2826,-5.2724,-5.2729,-5.2732,-5.2734,-5.3012,-5.3016,0,0,0,0,0,0,-5.2654,-5.2659,-5.2752,-5.2754,-5.2667,-5.2687,-5.2689,-5.2716,-5.272,-5.2717,-5.2687,-5.2679,-5.2717,-5.2722,-5.2729,-5.2859,-5.273,-5.2735,-5.2737,-5.3008,-5.3013,-5.3018,0,0,0,0,0,0,-5.2652,-5.2663,-5.2751,-5.2704,-5.2714,-5.2693,-5.2724,-5.2718,-5.2734,-5.2721,-5.2717,-5.2708,-5.2714,-5.2722,-5.2799,-5.2859,-5.2737,-5.2741,-5.3003,-5.3009,-5.3015,-5.3124,0,0,0,0,0,0,-5.2648,-5.2663,-5.2706,-5.2706,-5.2717,-5.2821,-5.2728,-5.2722,-5.2743,-5.2733,-5.2739,-5.2737,-5.2711,-5.2792,-5.2804,-5.2864,-5.2745,-5.2997,-5.3006,-5.3013,-5.3115,-5.3133,-5.3149,0,0,0,0,0,-5.2644,-5.2737,-5.2709,-5.2721,-5.2771,-5.2825,-5.2831,-5.2799,-5.2748,-5.2791,-5.2782,-5.2736,-5.2851,-5.28,-5.2813,-5.2876,-5.2993,-5.3003,-5.3013,-5.3107,-5.313,-5.3149,0,0,0,0,0,0,-5.2748,-5.2737,-5.2705,-5.2801,-5.2815,-5.281,-5.2863,-5.2825,-5.2854,-5.2843,-5.2803,-5.2805,-5.2889,-5.289,-5.2834,-5.2984,-5.2913,-5.2926,-5.298,-5.3002,-5.3019,-5.3016,-5.275,0,0,0,0,0,-5.2781,-5.2826,-5.2814,-5.29,-5.2908,-5.2885,-5.2907,-5.2881,-5.2893,-5.2899,-5.2896,-5.291,-5.2949,-5.2976,-5.3011,-5.3114,-5.3113,-5.3164,-5.3181,-5.3195,-5.3206,-5.3258,-5.328,-5.305,-5.305,-5.305,0,0,-5.2852,-5.2852,-5.2883,-5.2921,-5.2928,-5.2975,-5.289,-5.2944,-5.2978,-5.2908,-5.2979,-5.2977,-5.299,-5.308,-5.312,-5.3084,-5.3269,-5.3207,-5.3219,-5.3223,-5.327,-5.3292,-5.3311,-5.3057,-5.3055,-5.3054,0,0,-5.3004,-5.3009,-5.3079,-5.3087,-5.3098,-5.3081,-5.3098,-5.3098,-5.3094,-5.3165,-5.3111,-5.3151,-5.322,-5.323,-5.3245,-5.3397,-5.3355,-5.3409,-5.3499,-5.355,-5.3568,-5.3584,-5.3636,-5.3655,-5.3421,-5.3421,-5.3421,0,-5.3091,-5.3159,-5.3121,-5.3177,-5.3194,-5.313,-5.32,-5.321,-5.3233,-5.3246,-5.3205,-5.3287,-5.3292,-5.3382,-5.3418,-5.3433,-5.345,-5.3408,-5.3568,-5.3584,-5.3598,-5.3647,-5.3667,-5.3427,-5.3427,-5.3426,-5.3425,0,-5.3264,-5.3311,-5.3367,-5.3387,-5.3411,-5.3474,-5.3445,-5.3474,-5.3444,-5.3432,-5.3503,-5.3506,-5.3539,-5.3558,-5.3532,-5.3644,-5.3621,-5.3575,-5.3502,-5.3627,-5.3672,-5.3691,-5.3437,-5.3434,-5.3432,-5.3431,0,0,-5.3485,-5.348,-5.3501,-5.3508,-5.3513,-5.3549,-5.3608,-5.3639,-5.3663,-5.368,-5.3728,-5.3785,-5.3741,-5.3758,-5.3731,-5.3776,-5.3893,-5.3724,-5.3724,-5.3754,-5.4014,-5.4047,-5.407,-5.3865,-5.3869,-5.3871,-5.4012,0,-5.3632,-5.3732,-5.3697,-5.3799,-5.3841,-5.3779,-5.383,-5.3839,-5.3828,-5.3861,-5.3849,-5.389,-5.383,-5.3839,-5.3881,-5.387,-5.3945,-5.386,-5.3908,-5.3911,-5.3906,-5.4094,-5.413,-5.4263,-5.403,-5.4033,-5.4035,0,-5.3819,-5.384,-5.3945,-5.3939,-5.3955,-5.4002,-5.4025,-5.4059,-5.4066,-5.4055,-5.4071,-5.4034,-5.4091,-5.4018,-5.4095,-5.4038,-5.4056,-5.4053,-5.4058,-5.406,-5.398,-5.41,-5.4304,-5.4324,-5.4063,-5.4061,-5.4059,0,-5.3966,-5.4021,-5.409,-5.4098,-5.4094,-5.4128,-5.4128,-5.4131,-5.415,-5.4171,-5.4183,-5.4211,-5.4226,-5.4248,-5.4219,-5.4169,-5.4299,-5.4225,-5.429,-5.4291,-5.432,-5.4318,-5.4529,-5.4334,-5.4334,-5.4333,-5.4333,0,-5.4134,-5.42,-5.4155,-5.4198,-5.4269,-5.4228,-5.43,-5.4294,-5.4297,-5.4336,-5.4285,-5.4323,-5.4283,-5.4317,-5.4295,-5.4361,-5.4369,-5.436,-5.4353,-5.4364,-5.4365,-5.4374,-5.4364,-5.4338,-5.4337,-5.4336,-5.4335,0,-5.4311,-5.4284,-5.4354,-5.4343,-5.4342,-5.4395,-5.4385,-5.4424,-5.4407,-5.4458,-5.4467,-5.4443,-5.448,-5.4453,-5.4491,-5.4476,-5.4561,-5.4542,-5.4558,-5.4552,-5.4618,-5.4612,-5.4841,-5.4868,-5.4658,-5.466,-5.4662,0,-5.4419,-5.4468,-5.4461,-5.4482,-5.4485,-5.4522,-5.4539,-5.4501,-5.4522,-5.4532,-5.4569,-5.4602,-5.4625,-5.4688,-5.4674,-5.4701,-5.4682,-5.476,-5.4686,-5.4694,-5.4681,-5.4677,-5.4681,-5.4775,-5.4778,-5.478,-5.4781,0,-5.4614,-5.4596,-5.4624,-5.4646,-5.4669,-5.4685,-5.4697,-5.4718,-5.4679,-5.4705,-5.4741,-5.4759,-5.4796,-5.4828,-5.485,-5.485,-5.4809,-5.4805,-5.4821,-5.4832,-5.4838,-5.4833,-5.4597,-5.48,-5.4798,-5.4796,-5.4795,-5.4795,-5.4758,-5.4797,-5.4797,-5.4828,-5.4833,-5.4844,-5.4878,-5.4865,-5.4894,-5.492,-5.4895,-5.4938,-5.4942,-5.4967,-5.4972,-5.5005,-5.4972,-5.4997,-5.5002,-5.5009,-5.5017,-5.4834,-5.5009,-5.5008,-5.5008,-5.5007,-5.5007,0,-5.4948,-5.4943,-5.4973,-5.4989,-5.5014,-5.4971,-5.4981,-5.5004,-5.5042,-5.5048,-5.5072,-5.5112,-5.5142,-5.5129,-5.5155,-5.5184,-5.5166,-5.5192,-5.5189,-5.5189,-5.5045,-5.5028,-5.5206,-5.5206,-5.5206,-5.5206,-5.5206,-5.5206,-5.5049,-5.5112,-5.5094,-5.5158,-5.5153,-5.5193,-5.5202,-5.5212,-5.5216,-5.5263,-5.5287,-5.5277,-5.5275,-5.53,-5.5326,-5.5321,-5.5332,-5.5365,-5.5354,-5.522,-5.52,-5.5181,-5.5164,-5.5369,-5.5369,-5.5494,-5.5496,-5.5496]}]]